{"data":{"norad_id":64451,"epoch":"2026-05-25T01:44:45.338208Z","epoch_age_seconds":71846,"freshness":"FRESH","line1":"1 64451U 25130P   26145.07274697  .00021727  00000+0  74305-3 0  9991","line2":"2 64451  53.1574  94.0256 0001188 105.4822 254.6310 15.30221146 52398","mean_motion":15.30221146,"eccentricity":0.0001188,"inclination_deg":53.1574,"raan_deg":94.0256,"arg_perigee_deg":105.4822,"mean_anomaly_deg":254.631,"bstar":0.00074305,"rev_number":5239,"period_min":94.104045272421,"perigee_km":474.33776127688,"apogee_km":475.96610272712,"semimajor_km":6853.288932002,"source":"CELESTRAK","updated_at":"2026-05-25T13:38:20.450369Z"}}